STARLINK-38390, 100523

Orbit data source: Space-Track

STARLINK-38390, 100523 is a payload satellite owned by SpaceX/Seattle (US) in LEO that was launched on Wed, 26 Aug 2026 UTC launched from the Air Force Western Test Range (AFWTR). Payload-class satellites include a variety of spacecraft equipped with specific instruments for various scientific and technological missions. These include communications satellites like Starlink; space stations such as the ISS; scientific satellites like the Hubble; Earth observation satellites from companies like Planet Labs, Umbra, and HawkEye 360; GPS; miniature CubeSats for education and research; and military/defense satellites.

Loading next visibility...
Identifier
100523, 2026-197X
Orbit
LEO
Country
Flag of USUS
Related business
Manufacturer
SpaceX/Seattle
Mission
Operational spacecraft
Bus & Motor
STARLINK V2MO, Unknown motor
Mass
575 kg wet, ~530 kg dry
Launch date (UTC)
2026-08-26 (2 weeks ago)
Launch vehicle
Unknown
Launch site
Air Force Western Test Range (AFWTR)
Object type
Payload
Rocket body
Debris
Shape & HBR
BOX + PAN, 17.7 m
Radar Cross Section
RCS unknown

Expand to show TLE details & history
Last TLE update: 14 hours ago

TLE from 14 hours ago
0 STARLINK-38390
1 A0523U 26197X   26251.18808325  .00263034  00000-0  12375-2 0  9994
2 A0523  69.9990 156.8307 0003608 263.1948  96.8844 15.82257212  2044
Epoch: 2026-09-08T04:30Z
TLE epoch observation values (Epoch: 2026-09-08T04:30:50.392Z)
Latitude
Longitude
101.86265°
Altitude
326.863 km
Speed
7.712 km/s
True Right ascension
10h 27m 19s
True Declination
0° 00' 00"
Sunlit
Object was in daylight at epoch
Visualization orbit readout
Latitude
Unknown
Longitude
Unknown
Altitude
Unknown
Speed
Unknown
Apparent Right ascension
Unknown
Apparent Declination
Unknown
Sunlit
N/A
Visualization observer readout
Local Sidereal Time
10:51:03
Azimuth
Unknown
Elevation
Unknown
Doppler factor
Unknown
Orbital elements
Apogee altitude
324.348 km
Perigee altitude
319.514 km
Semi-major axis
6,700.068 km
Eccentricity
0.00036
Inclination
69.999°
RAAN
156.8307°
Arg. of periapsis
263.1948°
True anomaly
96.92544°
Mean anomaly
96.8844°
Eccentric anomaly
96.90492°
Mean motion
3.95753 °/min
Orbital period
90.97 mins
BSTAR
0.0012375
Loading maneuver chart data...
Computing Atmospheric mass density...
Loading historical data...
Loading historical data...
Loading historical data...
Loading historical data...
Loading historical data...
Loading historical data...
Loading historical data...

Documentation

Showing up to 5 results
|